Orbital elements:
2023 VN10                                                Earth MOID = 0.0761 AU
Epoch 2023 Sept. 13.0 TT = JDT 2460200.5                MPC                     
M  15.12133              (2000.0)            P               Q                  
n   0.90643258     Peri.   63.19905     +0.66182180     +0.72327257             
a   1.0574156      Node   249.68586     -0.74054643     +0.58987651             
e   0.2548766      Incl.   12.13565     -0.11654562     +0.35905777             
P   1.09           H   22.28          G   0.15           U   7                  
Residuals in seconds of arc
231115 703  0.5-  0.1+    231115 M63  0.0   0.1+    231116 C94  0.3-  1.1-
231115 703  0.2+  0.3+    231115 M63  0.1-  0.3-    231116 C94  0.6-  0.2-
231115 703  0.0   0.5-    231115 M63  0.4-  0.1+    231116 C94  0.1-  1.8-
231115 703  1.5+  1.1+    231115 L01  0.3-  0.1+    231116 958  0.2-  0.6-
231115 I52  0.2+  0.0     231115 106  0.1-  0.0     231116 958  0.0   0.4+
231115 I52  0.1-  0.1-    231115 L01  0.1-  0.1+    231116 958  0.0   0.0
231115 I52  0.0   0.3+    231115 106  0.0   0.0     231117 204  0.0   0.2-
231115 I52  0.0   0.1+    231115 L01  0.0   0.0     231117 204  0.2-  0.1-
231115 I52  0.2+  0.1-    231115 106  0.1-  0.1-    231117 204  0.1+  0.0
231115 I52  0.1+  0.1-    231115 106  0.0   0.0     231117 511  0.2+  0.0
231115 I52  0.0   0.0     231116 Z84  0.1+  0.1+    231117 511  0.6+  1.4+
231115 I52  0.0   0.1+    231116 Z84  0.0   0.0     231117 511  0.2-  0.1+
231115 734  0.2-  0.0     231116 Z84  0.1+  0.2-    231117 511  0.5-  0.1+
231115 734  0.1+  0.1-    231116 U55  0.4-  0.9-    231117 511  0.2-  1.1+
231115 734  0.1+  0.1+    231116 H21  0.1+  0.0     231117 511  0.1+  0.1-
231115 104  0.6-  0.4+    231116 H21  0.0   0.0     231117 511  0.2-  0.0
231115 104  0.2-  0.3+    231116 H21  0.2+  0.2+    231117 L65 (0.1+  1.4-)
231115 104  0.3-  0.2+    231116 H36  0.3-  0.1+    231117 L65  0.4-  0.2+
231115 L06  0.4-  0.3-    231116 U55  0.3+  0.1+    231117 U55  0.3-  0.3+
231115 L06  0.7-  0.1+    231116 H21  0.0   0.0     231117 U55  0.5+  0.1-
231115 L06  0.6-  0.4-    231116 H36  0.1-  0.4+    231117 J95  0.2-  0.1-
231115 L34  0.3+  0.4-    231116 H36  0.2-  0.2+    231117 J95  0.2+  0.2+
231115 M63  0.2-  0.3-    231116 C94  0.3-  0.1+    231117 J95  0.0   0.2-
231115 L34  0.1-  0.1+    231116 C94  0.3-  1.0-    231117 J95  0.2+  0.0

Ephemeris:
2023 VN10                a,e,i = 1.06, 0.25, 12                  q = 0.7879
Date    TT    R. A. (2000) Decl.     Delta      r    Elong.  Phase     V
2023 10 18    13 53 40.6 +48 32 32   0.1646  0.9203    58.1   113.1    22.5
...
2023 11 02    12 04 07.6 +64 08 56   0.1156  0.9855    83.2    90.1    20.7
...
2023 11 10    09 00 39.1 +67 58 05   0.09731 1.0207   105.4    69.3    19.7
...
2023 11 16    06 31 51.8 +59 29 38   0.09172 1.0467   126.9    49.1    19.0
2023 11 17    06 14 21.4 +57 13 02   0.09174 1.0510   130.7    45.5    18.9
2023 11 18    05 58 51.7 +54 48 03   0.09207 1.0553   134.5    41.9    18.9
...
2023 11 24    04 56 50.0 +39 28 01   0.1005  1.0806   156.9    21.0    18.5
...
2023 12 02    04 17 58.1 +22 51 22   0.1272  1.1131   177.0     2.6    18.3
...
2023 12 17    03 52 21.5 +07 26 57   0.2074  1.1692   150.5    24.4    20.3

A. U. Tomatic                (C) Copyright 2023 MPC           M.P.E.C. 2023-W13




More information about the Iaude mailing list